This demonstration page uses our WeatherBlox Daily Observations layout. Learn more.

Left ArrowRight Arrow

Hourly Observations for May 19, 2022

Temp ( °F °C ) Dew Point ( °F °C ) Humidity (%) Winds ( mph kmh ) Pressure ( in mb ) Visibility ( mi km ) Precip ( " mm )
12:53 am 00:53 Clear 76 24.4 21 -6.1 13 13 WSW 6 9 29.65 1004 10 16 0.00 0.00
1:53 am 01:53 Clear 79 26.1 20 -6.7 11 11 S 7 11 29.65 1004 10 16 0.00 0.00
2:53 am 02:53 Clear 73 22.8 18 -7.8 12 12 ESE 6 9 29.64 1004 10 16 0.00 0.00
3:53 am 03:53 Clear 68 20 23 -5 18 18 SE 7 11 29.64 1004 10 16 0.00 0.00
4:53 am 04:53 Clear 66 18.9 21 -6.1 18 18 Calm 29.63 1004 10 16 0.00 0.00
5:53 am 05:53 Clear 64 17.8 14 -10 14 14 S 5 7 29.65 1004 10 16 0.00 0.00
6:53 am 06:53 Clear 61 16.1 14 -10 16 16 SSE 7 11 29.65 1004 9 14 0.00 0.00
7:53 am 07:53 Sunny 63 17.2 15 -9.4 15 15 S 7 11 29.66 1005 8 13 0.00 0.00
8:53 am 08:53 Sunny 76 24.4 16 -8.9 10 10 S 7 11 29.67 1005 9 14 0.00 0.00
9:53 am 09:53 Sunny 83 28.3 13 -10.6 7 7 S 6 9 29.66 1004 10 16 0.00 0.00
10:53 am 10:53 Sunny 88 31.1 14 -10 6 6 WSW 10 17 29.65 1004 10 16 0.00 0.00
11:53 am 11:53 Sunny 93 33.9 15 -9.4 6 6 W 9 15 29.62 1003 10 16 0.00 0.00
12:53 pm 12:53 Sunny 97 36.1 13 -10.6 4 4 WSW 12 19 29.60 1002 10 16 0.00 0.00
1:53 pm 13:53 Sunny 101 38.3 8 -13.3 3 3 W 12 19 29.55 1001 10 16 0.00 0.00
2:53 pm 14:53 Sunny 103 39.4 10 -12.2 3 3 W 14 22 29.51 999 10 16 0.00 0.00
3:53 pm 15:53 Sunny 103 39.4 10 -12.2 3 3 WSW 16 26 29.49 999 10 16 0.00 0.00
4:53 pm 16:53 Sunny 103 39.4 12 -11.1 3 3 W 17 28 29.45 997 10 16 0.00 0.00
5:53 pm 17:53 Sunny 103 39.4 9 -12.8 3 3 WSW 17 28 29.43 997 10 16 0.00 0.00
6:53 pm 18:53 Sunny 101 38.3 6 -14.4 3 3 WSW 23 37 29.43 997 10 16 0.00 0.00
7:53 pm 19:53 Sunny 98 36.7 8 -13.3 3 3 WSW 18 30 29.43 997 10 16 0.00 0.00
8:53 pm 20:53 Clear 94 34.4 12 -11.1 5 5 W 16 26 29.42 996 10 16 0.00 0.00
9:53 pm 21:53 Clear 88 31.1 11 -11.7 5 5 W 12 19 29.44 997 10 16 0.00 0.00
10:53 pm 22:53 Clear 85 29.4 11 -11.7 6 6 W 12 19 29.45 997 10 16 0.00 0.00
11:53 pm 23:53 Clear 80 26.7 12 -11.1 7 7 W 8 13 29.45 997 10 16 0.00 0.00

Powered by AerisWeather